Retour au catalogue

COSMOS 2491 DEB

ActifPO
NORAD 57560·DEBRIS·🇷🇺 Russia

Lancé Dec 25, 2013 depuis Plesetsk Cosmodrome

Loading…

Prochains Passages (prochaines 24 heures)

TLE

PériméSource: Space-Track

Époque: Aug 29, 2026, 08:09 UTC

1 57560U 13076AX  26241.34019890  .00001646  00000-0  99425-2 0  9997
2 57560  82.4838 107.4382 0037273 348.0111  12.0085 12.55858679151372

Suivez COSMOS 2491 DEB en temps réel avec AllMySat

Download on the App Store